STARLINK-37155

Last updated on Sun Apr 12 2026 00:02:08 GMT+0000 (Coordinated Universal Time)

1 68314U 26057W 26101.52418750 .00412918 00000+0 20482-2 0 9996 2 68314 97.2855 225.6005 0001145 44.1554 315.9805 15.80899180 3456
UTC large
Height (km)
Speed (km/s)
/
Latitude / Longitude
Inclination (degrees)
Orbital Period (minutes)
Azimuth
Elevation
Range (km)
Doppler Factor

Next 0 passes for location: London (51.5072 / 0.1276)

Sorry there are no passes over London.
STARLINK-37155